Flugplatz Unterschwaningen (UL)

Hier findest Du alle Informationen zum Flugplatz Unterschwaningen (UL).

Informationen für Piloten zum Flugplatz Unterschwaningen

Hier findest Du alle relevanten Informationen, die Du als Pilot benötigst, um Unterschwaningen anzufliegen.

Flugplatz: Unterschwaningen ICAO-Code: UL Flugplatz
Frequenz Turm: 120.975 Mhz GAFOR Gebiet: 56
Frequenz Ground: 120.975 Mhz Mogas: nein
Platzrunde: N 2000 ft Landegebühr: -
Platzhöhe: Sunrise: 06:13 Uhr UTC
Pisten: 07/25 - 350 m x 25 m, GRAS Sunset: 16:48 Uhr UTC

Flugwetter am Flugplatz Unterschwaningen

Die METAR Information stammen aus EDDN (56.08 km entfernt).

METAR Code:
2019/02/21 16:20
EDDN 211620Z 27005KT CAVOK 09/03 Q1027 NOSIG

Flugschulen am Flugplatz Unterschwaningen

Am Flugplatz Unterschwaningen gibt es leider keine Flugschule.

Benachbarte Flugplätze und Flugschulen

Es gibt 23 weitere Flugplätze in einem Umkreis von 50 km um den Flugplatz Unterschwaningen.

Jetzt anmelden

Passwort vergessen

Umfrage Archiv

Welche Art von Theorieunterricht würde Dir am ehesten zusagen?

Frontalunterricht
64.1 %
Selbststudium
35.9 %
Stimmen: 315 | Diskussion
Anzeige: Roland Aircraft
Statistik Alle Mitglieder

Aktuell sind 41 Besucher online, davon 1 Mitglied und 40 Gäste.


Mitglieder online:
driver57 

Anzeige: VFR Sprechfunk Simulator


Anzeige: Pocket FMS